Concordia, KS

3:43 PM CST on November 17, 2017 (GMT -0600)
Blosser Municipal

Weather History for KCNK - September, 2013

Change the Weather History Date:

Tuesday, September 17, 2013

  Actual Average Record
Temperature  
Mean Temperature 70 °F 68 °F  
Max Temperature 81 °F 80 °F 102 °F (1953)
Min Temperature 59 °F 55 °F 37 °F (1981)
Degree Days  
Heating Degree Days 0 2  
Month to date heating degree days 7 20  
Since 1 July heating degree days 14 23  
Cooling Degree Days 5 5  
Month to date cooling degree days 176 119  
Year to date cooling degree days 1261 1285  
Growing Degree Days 19 (Base 50)    
Moisture  
Dew Point 62 °F    
Average Humidity 81    
Maximum Humidity 100    
Minimum Humidity 62    
Precipitation  
Precipitation 0.02 in 0.10 in 2.18 in (1978)
Month to date precipitation 0.56 1.66  
Year to date precipitation 24.13 22.76  
Snow  
Snow 0.00 in 0.00 in 0.00 in ()
Month to date snowfall 0.0 0.0  
Year to date snowfall 20.3 13.7  
Since 1 July snowfall 0.0 0.0  
Snow Depth 0.00 in    
Sea Level Pressure  
Sea Level Pressure 30.03 in    
Wind  
Wind Speed 11 mph (SE)    
Max Wind Speed 21 mph    
Max Gust Speed 26 mph    
Visibility 5 miles    
Events Fog , Rain , Thunderstorm    
T = Trace of Precipitation, MM = Missing Value Source: NWS Daily Summary

Daily Weather History Graph

Daily Weather History Graph

Search for Another Location

Airport or City:

Trip Planner

Search our weather history database for the weather conditions in past years. The results will help you decide how hot, cold, wet, or windy it might be!

Date:

Astronomy

Sep. 17, 2013 Rise Set
Actual Time 7:13 AM CDT 7:35 PM CDT
Civil Twilight 6:46 AM CDT 8:02 PM CDT
Nautical Twilight 6:15 AM CDT 8:33 PM CDT
Astronomical Twilight 5:42 AM CDT 9:06 PM CDT
Moon 6:23 PM CDT 5:10 AM CDT
Length of Visible Light 13h 15m
Length of Day
12h 21m
Waxing Gibbous, 96% of the Moon is Illuminated
Sep 17
Waxing Gibbous
Sep 19
Full
Sep 26
Last Quarter
Oct 4
New
Oct 11
First Quarter

Hourly Weather History & Observations

Time (CDT) Temp. Heat Index Dew Point Humidity Pressure Visibility Wind Dir Wind Speed Gust Speed Precip Events Conditions
12:05 AM 57.2 °F - 57.2 °F 100% 30.17 in 2.0 mi SE 6.9 mph - N/A   Overcast
12:17 AM 59.0 °F - 57.2 °F 94% 30.17 in 1.5 mi SE 6.9 mph - N/A   Overcast
12:27 AM 59.0 °F - 57.2 °F 94% 30.17 in 1.0 mi SE 4.6 mph - N/A   Overcast
12:39 AM 59.0 °F - 57.2 °F 94% 30.17 in 0.8 mi SE 5.8 mph - N/A   Mist
12:55 AM 59.0 °F - 57.9 °F 96% 30.16 in 0.8 mi SE 8.1 mph - N/A   Mist
1:55 AM 59.0 °F - 57.9 °F 96% 30.14 in 0.2 mi ESE 4.6 mph - N/A Fog Fog
2:55 AM 59.0 °F - 57.9 °F 96% 30.13 in 0.5 mi SE 4.6 mph - N/A Fog Fog
3:55 AM 59.0 °F - 59.0 °F 100% 30.11 in 0.2 mi ESE 3.5 mph - N/A Fog Fog
4:55 AM 59.0 °F - 59.0 °F 100% 30.10 in 0.2 mi ESE 4.6 mph - N/A Fog Fog
5:55 AM 59.0 °F - 59.0 °F 100% 30.08 in 0.2 mi East 5.8 mph - 0.01 in Fog Fog
6:24 AM 59.0 °F - 59.0 °F 100% 30.09 in 1.5 mi ESE 4.6 mph - 0.00 in Rain Light Rain
6:26 AM 59.0 °F - 59.0 °F 100% 30.09 in 2.0 mi ESE 5.8 mph - 0.00 in Rain Light Rain
6:33 AM 59.0 °F - 59.0 °F 100% 30.09 in 4.0 mi East 5.8 mph - 0.01 in Rain , Thunderstorm Light Rain
6:55 AM 60.1 °F - 59.0 °F 96% 30.09 in 6.0 mi East 5.8 mph - 0.01 in Rain , Thunderstorm Light Rain
7:14 AM 60.8 °F - 59.0 °F 94% 30.10 in 5.0 mi ESE 4.6 mph - 0.00 in   Overcast
7:26 AM 60.8 °F - 59.0 °F 94% 30.10 in 1.8 mi SE 8.1 mph - 0.00 in   Overcast
7:28 AM 60.8 °F - 59.0 °F 94% 30.10 in 1.2 mi SE 9.2 mph - 0.00 in   Overcast
7:36 AM 60.8 °F - 59.0 °F 94% 30.10 in 0.5 mi SE 9.2 mph - 0.00 in Fog Fog
7:55 AM 60.1 °F - 60.1 °F 100% 30.09 in 0.2 mi SE 9.2 mph - 0.00 in Fog Fog
8:40 AM 60.8 °F - 60.8 °F 100% 30.09 in 1.0 mi SE 9.2 mph - N/A   Overcast
8:55 AM 62.1 °F - 61.0 °F 96% 30.07 in 1.2 mi SE 8.1 mph - N/A   Overcast
9:12 AM 62.6 °F - 62.6 °F 100% 30.08 in 1.8 mi SSE 10.4 mph - N/A   Overcast
9:19 AM 62.6 °F - 62.6 °F 100% 30.08 in 3.0 mi SSE 10.4 mph - N/A   Overcast
9:55 AM 64.0 °F - 63.0 °F 96% 30.06 in 2.5 mi SSE 11.5 mph - N/A   Overcast
10:16 AM 64.4 °F - 64.4 °F 100% 30.08 in 4.0 mi SSE 8.1 mph - N/A   Overcast
10:55 AM 64.9 °F - 64.0 °F 97% 30.05 in 3.0 mi SSE 10.4 mph - N/A   Overcast
11:24 AM 66.2 °F - 64.4 °F 94% 30.06 in 5.0 mi SSE 11.5 mph - N/A   Overcast
11:55 AM 66.0 °F - 64.9 °F 96% 30.04 in 5.0 mi SSE 17.3 mph 23.0 mph N/A   Overcast
12:55 PM 68.0 °F - 64.9 °F 90% 30.01 in 5.0 mi SSE 17.3 mph - N/A   Overcast
1:04 PM 68.0 °F - 64.4 °F 88% 30.03 in 5.0 mi South 13.8 mph 24.2 mph N/A   Overcast
1:37 PM 69.8 °F - 66.2 °F 88% 30.01 in 7.0 mi SSE 15.0 mph - N/A   Overcast
1:55 PM 72.0 °F - 66.0 °F 81% 29.97 in 8.0 mi South 15.0 mph 21.9 mph N/A   Overcast
2:19 PM 73.4 °F - 66.2 °F 78% 29.99 in 9.0 mi SSE 16.1 mph 25.3 mph N/A   Overcast
2:55 PM 75.0 °F - 66.9 °F 76% 29.94 in 9.0 mi South 12.7 mph 24.2 mph N/A   Overcast
3:55 PM 78.1 °F - 66.9 °F 68% 29.91 in 10.0 mi South 15.0 mph - N/A   Mostly Cloudy
4:53 PM 80.6 °F 82.7 °F 66.2 °F 61% 29.91 in 10.0 mi South 15.0 mph 24.2 mph N/A   Partly Cloudy
4:55 PM 80.1 °F 82.3 °F 66.9 °F 64% 29.88 in 10.0 mi South 15.0 mph 23.0 mph N/A   Partly Cloudy
5:55 PM 80.1 °F 82.3 °F 66.9 °F 64% 29.86 in 10.0 mi South 13.8 mph 23.0 mph N/A   Clear
6:55 PM 79.0 °F - 66.9 °F 66% 29.84 in 10.0 mi South 11.5 mph 18.4 mph N/A   Clear
7:55 PM 75.9 °F - 66.9 °F 74% 29.84 in 10.0 mi SSE 9.2 mph - N/A   Clear
8:55 PM 75.0 °F - 66.0 °F 73% 29.86 in 10.0 mi SSE 13.8 mph - N/A   Clear
9:55 PM 73.9 °F - 66.0 °F 76% 29.87 in 10.0 mi SSE 13.8 mph - N/A   Clear
10:55 PM 73.0 °F - 66.0 °F 79% 29.87 in 10.0 mi SSE 16.1 mph - N/A   Clear
11:55 PM 71.1 °F - 66.0 °F 84% 29.86 in 10.0 mi South 15.0 mph - N/A   Clear